Flag Weather past 2 weeks in Hollywood, Florida, U.S.A.

Now
57 °F

Passing clouds.


Feels Like: 55 °F
Forecast: 55 / 72 °F
Wind: 10 mph from North

Location: Fort Lauderdale / Hollywood International Airport

Current Time: Nov 27, 2014 at 12:48:02 AM

Latest Report: Nov 26, 2014 at 11:53 PM


Visibility: 10 mi

Pressure: 30.17 "Hg

Humidity: 69%

Dew point: 47 °F

Location of HollywoodLocation

Historic Weather in Hollywood — Graph

°F

Hollywood temperature yesterday

Maximum temperature yesterday: 82 °F (at 8:53 AM)
Minimum temperature yesterday: 58 °F (at 10:53 PM)
Average temperature yesterday: 71 °F

Past Weeks' High & Low Weather Summary

 TemperatureHumidityPressure
High87 °F (Nov 17, 2:53 PM)100% (Nov 19, 12:53 AM)30.22 "Hg (Nov 19, 12:53 AM)
Low56 °F (Nov 19, 3:53 AM)39% (Nov 26, 12:53 AM)29.91 "Hg (Nov 23, 4:53 PM)
Average75 °F77%30.05 "Hg
* Reported Nov 11 10:53 PM — Nov 26 10:53 PM, Hollywood, Weather by CustomWeather, © 2014

Note: Actual official high and low records may vary slightly from our data, if they occured in-between our weather recording intervals... More about our weather records

Advertising

Hollywood weather history for previous 24 hours

 ConditionsComfort  
Time TempWeatherWind HumidityBarometerVisibility
10:53 PM
Nov 26
58 °FPassing clouds.10 mph70%30.18 "Hg10 mi
9:53 PM59 °FPassing clouds.8 mph69%30.17 "Hg10 mi
8:53 PM60 °FPassing clouds.9 mph67%30.16 "Hg10 mi
7:53 PM61 °FPassing clouds.9 mph58%30.15 "Hg10 mi
6:53 PM62 °FPartly cloudy.13 mph62%30.14 "Hg10 mi
5:53 PM63 °FMostly cloudy.12 mph63%30.13 "Hg10 mi
4:53 PM64 °FMostly cloudy.13 mph73%30.11 "Hg10 mi
3:53 PM64 °FBroken clouds.9 mph75%30.09 "Hg10 mi
2:53 PM63 °FOvercast.18 mph87%30.08 "Hg10 mi
1:53 PM67 °FPartly sunny.14 mph79%30.05 "Hg10 mi
12:53 PM70 °FMostly cloudy.17 mph79%30.05 "Hg10 mi
11:53 AM70 °FBroken clouds.15 mph84%30.06 "Hg10 mi
10:53 AM69 °FBroken clouds.12 mph90%30.07 "Hg10 mi
9:53 AM79 °FBroken clouds.13 mph84%30.04 "Hg10 mi
8:53 AM82 °FPartly sunny.13 mph82%30.00 "Hg10 mi
7:53 AM79 °FPartly sunny.8 mph88%29.98 "Hg10 mi
6:53 AM79 °FPartly sunny.7 mph88%29.96 "Hg10 mi
5:53 AM78 °FPassing clouds.8 mph93%29.93 "Hg10 mi
4:53 AM79 °FPartly cloudy.7 mph94%29.92 "Hg10 mi
3:53 AM80 °FPartly cloudy.10 mph85%29.91 "Hg10 mi
2:53 AM80 °FPassing clouds.8 mph79%29.91 "Hg10 mi
1:53 AM80 °FPassing clouds.8 mph62%29.92 "Hg10 mi
12:53 AM81 °FPassing clouds.12 mph39%29.92 "Hg10 mi
Weather by CustomWeather, © 2014

See weather overviewHow to use our weather pages